contact:dominique.lefevre@mio.osupytheas.fr, maurice.libes@osupytheas.fr, didier.mallarino@osupytheas.fr
Project:EMSO http://www.emso-fr.org/EMSO-France
Depth: 2436.0 m
Title:EMSO Ligure Ouest : Data MII capteur AQUADOPP
Date,Latitude,Longitude,X_East,Y_North,Z_Up,Amplitude_X,Amplitude_Y,Amplitude_Z,Batterie,SoundSpeed,Heading,Pitch,Roll,Pressure,TIS,Speed,Direction
, degrees North, degrees East, m.s-1, m.s-1,m.s-1, 1, 1, 1, Volt, m.s-1, degree, degree, degree, dbar, degree_C, m.s-1, degree
2021-05-03T00:04:03,42.805,6.029,0.034,-0.007,0.045,103.0,103.0,101.0,13.4,1505.2,328.0,-0.7,1.8,2470.085,13.28,0.034,101.6
2021-05-03T00:07:03,42.805,6.029,0.016,-0.031,0.029,103.0,102.0,102.0,13.4,1505.2,326.7,-0.7,1.8,2470.038,13.28,0.034,152.7
2021-05-03T00:10:03,42.805,6.029,0.028,-0.022,0.021,103.0,102.0,101.0,13.4,1505.2,325.8,-0.8,1.8,2470.05,13.28,0.035,128.2
2021-05-03T00:13:03,42.805,6.029,0.031,-0.005,0.003,103.0,103.0,102.0,13.4,1505.2,326.0,-0.7,1.8,2470.015,13.28,0.031,99.2
2021-05-03T00:16:03,42.805,6.029,0.044,-0.039,-0.009,103.0,102.0,102.0,13.4,1505.2,327.4,-0.8,1.9,2470.056,13.28,0.058,131.6
2021-05-03T00:19:03,42.805,6.029,0.03,-0.041,0.017,103.0,103.0,101.0,13.3,1505.2,325.7,-0.8,1.8,2470.026,13.28,0.05,143.8
2021-05-03T00:22:03,42.805,6.029,0.034,-0.035,-0.026,102.0,105.0,102.0,13.4,1505.2,327.7,-0.8,1.8,2470.045,13.28,0.048,135.8
2021-05-03T00:25:03,42.805,6.029,0.019,-0.011,0.019,103.0,103.0,101.0,13.4,1505.2,326.1,-0.8,1.8,2470.035,13.28,0.021,120.1
2021-05-03T00:28:03,42.805,6.029,0.018,-0.037,-0.014,104.0,103.0,101.0,13.3,1505.2,325.9,-0.8,1.9,2469.997,13.28,0.041,154.1
2021-05-03T00:31:03,42.805,6.029,0.03,-0.013,0.031,101.0,103.0,101.0,13.4,1505.2,328.1,-0.8,1.8,2470.038,13.28,0.032,113.4
2021-05-03T00:34:03,42.805,6.029,0.023,-0.02,0.028,102.0,102.0,101.0,13.3,1505.2,327.6,-0.7,1.8,2470.021,13.28,0.03,131.0
2021-05-03T00:37:03,42.805,6.029,0.027,-0.05,-0.012,101.0,102.0,102.0,13.3,1505.2,328.1,-0.7,1.8,2470.025,13.28,0.056,151.6
2021-05-03T00:40:03,42.805,6.029,0.015,-0.039,0.012,103.0,102.0,101.0,13.3,1505.2,328.7,-0.8,1.8,2470.053,13.28,0.041,159.0
2021-05-03T00:43:03,42.805,6.029,0.022,-0.045,0.005,104.0,103.0,101.0,13.4,1505.2,328.1,-0.7,1.8,2470.03,13.28,0.05,153.9
2021-05-03T00:46:03,42.805,6.029,0.039,-0.047,0.01,102.0,103.0,102.0,13.3,1505.2,329.4,-0.7,1.8,2470.007,13.28,0.061,140.3
2021-05-03T00:49:03,42.805,6.029,0.014,-0.027,0.01,102.0,103.0,101.0,13.3,1505.2,329.1,-0.8,1.8,2470.075,13.28,0.03,152.6
2021-05-03T00:52:03,42.805,6.029,0.034,-0.035,-0.011,101.0,103.0,102.0,13.4,1505.2,325.0,-0.8,1.8,2470.045,13.28,0.048,135.8
2021-05-03T00:55:03,42.805,6.029,0.016,-0.031,0.018,102.0,104.0,101.0,13.3,1505.2,324.3,-0.7,1.8,2470.059,13.28,0.034,152.7
2021-05-03T00:58:03,42.805,6.029,0.019,-0.008,0.0,102.0,102.0,101.0,13.4,1505.2,325.0,-0.7,1.8,2470.063,13.28,0.02,112.8
2021-05-03T01:04:03,42.805,6.029,0.028,-0.03,0.008,102.0,103.0,101.0,13.3,1505.2,325.0,-0.8,1.8,2470.1,13.28,0.041,137.0
2021-05-03T01:07:03,42.805,6.029,0.019,-0.013,0.014,102.0,102.0,100.0,13.4,1505.2,328.0,-0.8,1.8,2470.041,13.28,0.023,124.4
2021-05-03T01:10:03,42.805,6.029,0.03,-0.034,0.001,102.0,102.0,101.0,13.4,1505.2,325.9,-0.7,1.9,2470.08,13.28,0.045,138.6
2021-05-03T01:13:03,42.805,6.029,0.019,-0.034,0.008,102.0,102.0,101.0,13.4,1505.2,326.3,-0.8,1.8,2470.075,13.28,0.038,150.8
2021-05-03T01:16:03,42.805,6.029,0.04,-0.022,0.012,103.0,103.0,102.0,13.3,1505.2,325.8,-0.7,1.8,2470.072,13.28,0.045,118.8
2021-05-03T01:19:03,42.805,6.029,0.013,-0.025,0.002,103.0,104.0,100.0,13.4,1505.2,329.5,-0.7,1.8,2470.088,13.28,0.028,152.5
2021-05-03T01:22:03,42.805,6.029,0.018,-0.023,0.039,102.0,103.0,101.0,13.3,1505.2,324.2,-0.8,1.9,2470.058,13.28,0.029,142.0
2021-05-03T01:25:03,42.805,6.029,0.03,-0.005,0.043,103.0,103.0,101.0,13.4,1505.2,324.5,-0.8,1.8,2470.103,13.28,0.03,99.5
2021-05-03T01:28:03,42.805,6.029,0.038,-0.031,0.039,102.0,102.0,102.0,13.4,1505.2,324.7,-0.7,1.8,2470.058,13.28,0.049,129.2
2021-05-03T01:31:03,42.805,6.029,0.011,-0.011,0.024,103.0,102.0,101.0,13.4,1505.2,327.4,-0.7,1.8,2470.09,13.28,0.015,135.0
2021-05-03T01:34:03,42.805,6.029,0.031,-0.021,0.022,102.0,103.0,101.0,13.4,1505.2,325.0,-0.8,1.8,2470.12,13.28,0.037,124.1
2021-05-03T01:37:03,42.805,6.029,0.016,-0.033,0.01,104.0,104.0,100.0,13.3,1505.2,325.7,-0.8,1.8,2470.079,13.28,0.036,154.1
2021-05-03T01:40:03,42.805,6.029,0.013,-0.017,0.014,103.0,105.0,102.0,13.4,1505.2,326.1,-0.8,1.9,2470.106,13.28,0.021,142.6
2021-05-03T01:43:03,42.805,6.029,0.033,-0.03,0.018,103.0,105.0,101.0,13.4,1505.2,328.4,-0.8,1.8,2470.085,13.28,0.044,132.3
2021-05-03T01:46:03,42.805,6.029,0.019,-0.02,0.017,103.0,105.0,102.0,13.4,1505.2,327.1,-0.8,1.8,2470.071,13.28,0.027,136.5
2021-05-03T01:49:03,42.805,6.029,0.015,-0.034,0.004,104.0,106.0,102.0,13.4,1505.2,325.9,-0.7,1.8,2470.085,13.28,0.037,156.2
2021-05-03T01:52:03,42.805,6.029,0.015,-0.016,-0.012,105.0,104.0,102.0,13.4,1505.2,328.1,-0.7,1.8,2470.084,13.28,0.021,136.9
2021-05-03T01:55:03,42.805,6.029,0.033,-0.015,0.026,103.0,103.0,103.0,13.4,1505.2,324.3,-0.8,1.8,2470.11,13.28,0.036,114.4
2021-05-03T01:58:03,42.805,6.029,0.024,-0.022,0.007,104.0,104.0,103.0,13.4,1505.2,324.4,-0.7,1.8,2470.091,13.28,0.032,132.5
2021-05-03T02:04:03,42.805,6.029,0.028,-0.029,-0.014,104.0,104.0,103.0,13.3,1505.2,327.9,-0.7,1.9,2470.107,13.28,0.04,136.0
2021-05-03T02:07:03,42.805,6.029,0.041,-0.045,0.04,103.0,104.0,102.0,13.3,1505.2,328.1,-0.8,1.8,2470.101,13.28,0.06,137.7
2021-05-03T02:10:03,42.805,6.029,0.044,-0.032,0.016,104.0,102.0,101.0,13.4,1505.2,326.6,-0.7,1.8,2470.135,13.28,0.054,126.0
2021-05-03T02:13:03,42.805,6.029,0.022,-0.02,0.01,102.0,103.0,102.0,13.4,1505.2,326.1,-0.8,1.8,2470.085,13.28,0.029,132.3
2021-05-03T02:16:03,42.805,6.029,0.027,-0.031,0.03,103.0,103.0,101.0,13.3,1505.2,323.8,-0.7,1.8,2470.135,13.28,0.041,138.9
2021-05-03T02:19:03,42.805,6.029,0.006,-0.024,-0.009,104.0,101.0,101.0,13.4,1505.2,327.7,-0.8,1.8,2470.111,13.28,0.024,166.0
2021-05-03T02:22:03,42.805,6.029,0.026,-0.038,0.015,103.0,103.0,103.0,13.4,1505.2,329.2,-0.7,1.8,2470.08,13.28,0.046,145.6
2021-05-03T02:25:03,42.805,6.029,0.024,-0.018,0.022,104.0,103.0,102.0,13.3,1505.2,324.8,-0.7,1.8,2470.118,13.28,0.03,126.9
2021-05-03T02:28:03,42.805,6.029,0.039,-0.016,0.025,103.0,103.0,101.0,13.3,1505.2,327.5,-0.8,1.8,2470.11,13.28,0.042,112.3
2021-05-03T02:31:03,42.805,6.029,0.052,-0.037,0.025,103.0,104.0,102.0,13.4,1505.2,327.4,-0.7,1.9,2470.139,13.28,0.063,125.4
2021-05-03T02:34:03,42.805,6.029,0.039,-0.022,0.022,103.0,103.0,102.0,13.3,1505.2,323.7,-0.8,1.8,2470.127,13.28,0.044,119.4
2021-05-03T02:37:03,42.805,6.029,0.032,-0.03,-0.016,103.0,102.0,101.0,13.4,1505.2,328.0,-0.8,1.8,2470.116,13.28,0.043,133.1
2021-05-03T02:40:03,42.805,6.029,0.014,-0.023,-0.004,103.0,103.0,101.0,13.3,1505.2,326.0,-0.7,1.8,2470.135,13.28,0.026,148.7
2021-05-03T02:43:03,42.805,6.029,0.027,-0.02,0.0,102.0,104.0,103.0,13.4,1505.2,328.2,-0.8,1.9,2470.139,13.28,0.033,126.5
2021-05-03T02:46:03,42.805,6.029,0.031,-0.038,0.017,105.0,104.0,102.0,13.4,1505.2,329.3,-0.7,1.8,2470.128,13.28,0.049,140.8
2021-05-03T02:49:03,42.805,6.029,0.041,-0.028,0.019,104.0,105.0,101.0,13.3,1505.2,325.1,-0.7,1.8,2470.109,13.28,0.049,124.3
2021-05-03T02:52:03,42.805,6.029,0.034,-0.031,0.024,104.0,101.0,102.0,13.3,1505.2,324.2,-0.7,1.8,2470.112,13.28,0.046,132.4
2021-05-03T02:55:03,42.805,6.029,-0.001,-0.015,0.023,104.0,102.0,102.0,13.4,1505.2,325.2,-0.8,1.8,2470.133,13.28,0.015,183.8
2021-05-03T02:58:03,42.805,6.029,0.031,-0.02,0.003,104.0,105.0,101.0,13.4,1505.2,327.2,-0.8,1.8,2470.14,13.28,0.036,122.8
2021-05-03T03:04:03,42.805,6.029,0.04,-0.027,0.022,102.0,104.0,102.0,13.3,1505.2,328.1,-0.8,1.8,2470.19,13.28,0.048,124.0
2021-05-03T03:07:03,42.805,6.029,0.035,-0.026,0.027,103.0,104.0,103.0,13.3,1505.2,324.2,-0.8,1.8,2470.146,13.28,0.043,126.6
2021-05-03T03:10:03,42.805,6.029,0.045,-0.021,0.027,104.0,103.0,102.0,13.4,1505.2,325.7,-0.7,1.9,2470.188,13.28,0.049,115.0
2021-05-03T03:13:03,42.805,6.029,0.011,-0.035,-0.02,103.0,103.0,103.0,13.4,1505.2,328.8,-0.8,1.8,2470.135,13.28,0.036,162.6
2021-05-03T03:16:03,42.805,6.029,0.042,-0.022,0.026,104.0,104.0,103.0,13.4,1505.2,324.6,-0.8,1.8,2470.129,13.28,0.047,117.6
2021-05-03T03:19:03,42.805,6.029,0.039,-0.027,0.036,103.0,104.0,103.0,13.4,1505.2,324.4,-0.7,1.8,2470.135,13.28,0.047,124.7
2021-05-03T03:22:03,42.805,6.029,0.023,-0.029,-0.003,104.0,102.0,103.0,13.4,1505.2,327.3,-0.7,1.8,2470.113,13.28,0.037,141.6
2021-05-03T03:25:03,42.805,6.029,0.026,-0.029,0.015,104.0,105.0,102.0,13.4,1505.2,325.3,-0.7,1.8,2470.168,13.28,0.038,138.1
2021-05-03T03:28:03,42.805,6.029,0.022,-0.028,0.016,103.0,106.0,102.0,13.3,1505.2,327.4,-0.8,1.8,2470.145,13.28,0.035,141.8
2021-05-03T03:31:03,42.805,6.029,0.035,-0.046,0.036,103.0,104.0,102.0,13.4,1505.2,326.1,-0.7,1.8,2470.166,13.28,0.057,142.7
2021-05-03T03:34:03,42.805,6.029,0.037,-0.023,0.02,104.0,104.0,102.0,13.3,1505.2,325.8,-0.8,1.8,2470.157,13.28,0.043,121.9
2021-05-03T03:37:03,42.805,6.029,0.023,-0.016,0.044,104.0,104.0,102.0,13.3,1505.2,327.4,-0.8,1.9,2470.174,13.28,0.028,124.8
2021-05-03T03:40:03,42.805,6.029,0.044,-0.016,0.034,102.0,103.0,104.0,13.4,1505.2,325.7,-0.7,1.9,2470.139,13.28,0.046,110.0
2021-05-03T03:43:03,42.805,6.029,0.023,-0.023,0.015,103.0,103.0,102.0,13.4,1505.2,323.8,-0.8,1.8,2470.164,13.28,0.032,135.0
2021-05-03T03:46:03,42.805,6.029,0.028,-0.03,0.001,103.0,103.0,102.0,13.4,1505.2,325.6,-0.8,1.8,2470.191,13.28,0.041,137.0
2021-05-03T03:49:03,42.805,6.029,0.04,-0.041,0.015,103.0,104.0,102.0,13.4,1505.2,328.0,-0.8,1.8,2470.148,13.28,0.057,135.7
2021-05-03T03:52:03,42.805,6.029,0.007,-0.039,-0.009,103.0,103.0,102.0,13.4,1505.2,325.5,-0.8,1.8,2470.165,13.28,0.039,169.8
2021-05-03T03:55:03,42.805,6.029,0.035,-0.028,-0.007,101.0,103.0,102.0,13.4,1505.2,327.8,-0.8,1.8,2470.171,13.28,0.044,128.7
2021-05-03T03:58:03,42.805,6.029,0.037,-0.026,0.04,103.0,104.0,100.0,13.4,1505.2,324.7,-0.8,1.8,2470.192,13.28,0.045,125.1
2021-05-03T04:04:03,42.805,6.029,0.03,-0.012,0.02,103.0,103.0,102.0,13.4,1505.2,326.4,-0.8,1.8,2470.201,13.28,0.032,111.8
2021-05-03T04:07:03,42.805,6.029,0.024,-0.037,0.008,104.0,103.0,102.0,13.4,1505.2,327.3,-0.8,1.8,2470.191,13.28,0.044,147.0
2021-05-03T04:10:03,42.805,6.029,0.027,-0.032,0.009,103.0,105.0,101.0,13.3,1505.2,326.7,-0.7,1.8,2470.223,13.28,0.041,139.8
2021-05-03T04:13:03,42.805,6.029,0.013,-0.015,0.012,103.0,104.0,103.0,13.4,1505.2,325.6,-0.8,1.8,2470.179,13.28,0.019,139.1
2021-05-03T04:16:03,42.805,6.029,0.025,-0.032,0.021,103.0,103.0,102.0,13.4,1505.2,327.0,-0.7,1.8,2470.209,13.28,0.04,142.0
2021-05-03T04:19:03,42.805,6.029,0.018,-0.02,0.023,103.0,103.0,102.0,13.4,1505.2,328.5,-0.8,1.8,2470.172,13.28,0.026,138.0
2021-05-03T04:22:03,42.805,6.029,0.015,-0.01,0.001,104.0,104.0,102.0,13.4,1505.2,324.3,-0.7,1.8,2470.229,13.28,0.018,123.7
2021-05-03T04:25:03,42.805,6.029,0.016,-0.009,0.023,103.0,104.0,103.0,13.4,1505.2,325.7,-0.8,1.9,2470.246,13.28,0.018,119.4
2021-05-03T04:28:03,42.805,6.029,0.042,-0.018,0.043,104.0,104.0,102.0,13.4,1505.2,325.7,-0.7,1.8,2470.223,13.28,0.045,113.2
2021-05-03T04:31:03,42.805,6.029,0.027,-0.038,0.009,103.0,104.0,102.0,13.4,1505.2,326.7,-0.8,1.8,2470.213,13.28,0.046,144.6
2021-05-03T04:34:03,42.805,6.029,0.032,-0.029,0.005,103.0,105.0,102.0,13.3,1505.2,329.7,-0.8,1.8,2470.209,13.28,0.043,132.2
2021-05-03T04:37:03,42.805,6.029,0.024,-0.02,0.027,103.0,104.0,102.0,13.4,1505.2,324.8,-0.8,1.8,2470.18,13.28,0.031,129.8
2021-05-03T04:40:03,42.805,6.029,0.039,-0.016,0.035,103.0,103.0,102.0,13.4,1505.2,325.0,-0.7,1.8,2470.252,13.28,0.042,112.3
2021-05-03T04:43:03,42.805,6.029,0.048,-0.018,0.027,104.0,103.0,103.0,13.4,1505.2,325.9,-0.8,1.8,2470.236,13.28,0.051,110.6
2021-05-03T04:46:03,42.805,6.029,0.003,-0.02,0.011,102.0,105.0,101.0,13.4,1505.2,328.9,-0.7,1.8,2470.268,13.28,0.02,171.5
2021-05-03T04:49:03,42.805,6.029,0.025,-0.029,0.019,104.0,106.0,102.0,13.4,1505.2,329.3,-0.7,1.8,2470.226,13.28,0.038,139.2
2021-05-03T04:52:03,42.805,6.029,0.022,-0.023,0.018,103.0,105.0,101.0,13.4,1505.2,327.6,-0.7,1.8,2470.255,13.28,0.031,136.3
2021-05-03T04:55:03,42.805,6.029,0.032,-0.021,0.026,103.0,105.0,102.0,13.4,1505.2,326.4,-0.8,1.8,2470.215,13.28,0.038,123.3
2021-05-03T04:58:03,42.805,6.029,0.033,-0.051,0.012,102.0,105.0,101.0,13.4,1505.2,328.6,-0.7,1.8,2470.213,13.28,0.06,147.1
2021-05-03T05:04:03,42.805,6.029,0.028,-0.027,0.022,103.0,103.0,102.0,13.4,1505.2,327.9,-0.7,1.8,2470.248,13.28,0.038,134.0
2021-05-03T05:07:03,42.805,6.029,0.027,-0.016,-0.019,102.0,103.0,101.0,13.3,1505.2,325.7,-0.8,1.8,2470.283,13.28,0.031,120.7
2021-05-03T05:10:03,42.805,6.029,0.02,-0.002,0.012,102.0,103.0,102.0,13.4,1505.2,329.1,-0.7,1.8,2470.263,13.28,0.02,95.7
2021-05-03T05:13:03,42.805,6.029,0.031,-0.012,0.046,103.0,102.0,102.0,13.3,1505.2,327.6,-0.7,1.8,2470.21,13.28,0.033,111.2
2021-05-03T05:16:03,42.805,6.029,0.03,-0.006,0.009,102.0,104.0,101.0,13.4,1505.2,325.1,-0.7,1.8,2470.242,13.28,0.03,101.3
2021-05-03T05:19:03,42.805,6.029,0.014,-0.028,0.013,103.0,105.0,100.0,13.3,1505.2,328.5,-0.8,1.8,2470.234,13.28,0.031,153.4
2021-05-03T05:22:03,42.805,6.029,0.033,-0.041,0.015,102.0,105.0,101.0,13.4,1505.2,327.8,-0.7,1.9,2470.257,13.28,0.052,141.2
2021-05-03T05:25:03,42.805,6.029,0.014,-0.026,0.016,103.0,102.0,101.0,13.4,1505.2,327.7,-0.8,1.8,2470.242,13.28,0.029,151.7
2021-05-03T05:28:03,42.805,6.029,-0.005,-0.004,0.005,102.0,103.0,102.0,13.4,1505.2,326.4,-0.7,1.8,2470.24,13.28,0.006,231.3
2021-05-03T05:31:03,42.805,6.029,0.035,-0.012,-0.009,103.0,104.0,102.0,13.4,1505.2,324.6,-0.7,1.8,2470.246,13.28,0.037,108.9
2021-05-03T05:34:03,42.805,6.029,0.029,-0.016,0.001,103.0,104.0,101.0,13.4,1505.2,324.7,-0.8,1.9,2470.254,13.28,0.033,118.9
2021-05-03T05:37:03,42.805,6.029,0.041,-0.014,0.041,104.0,103.0,101.0,13.4,1505.2,326.5,-0.8,1.8,2470.254,13.28,0.043,108.9
2021-05-03T05:40:03,42.805,6.029,0.017,-0.023,0.014,102.0,105.0,102.0,13.4,1505.2,325.1,-0.7,1.8,2470.275,13.28,0.028,143.5
2021-05-03T05:43:03,42.805,6.029,0.02,-0.027,0.027,102.0,104.0,102.0,13.3,1505.2,325.8,-0.7,1.8,2470.246,13.28,0.033,143.5
2021-05-03T05:46:03,42.805,6.029,0.041,-0.025,0.019,102.0,105.0,103.0,13.3,1505.2,326.8,-0.8,1.8,2470.246,13.28,0.048,121.4
2021-05-03T05:49:03,42.805,6.029,0.036,-0.029,0.024,103.0,104.0,101.0,13.4,1505.2,323.7,-0.8,1.8,2470.215,13.28,0.046,128.9
2021-05-03T05:52:03,42.805,6.029,0.037,-0.026,0.013,105.0,104.0,102.0,13.3,1505.2,325.9,-0.7,1.8,2470.248,13.28,0.045,125.1
2021-05-03T05:55:03,42.805,6.029,0.015,-0.013,0.038,104.0,104.0,101.0,13.4,1505.2,327.8,-0.8,1.8,2470.254,13.28,0.019,130.9
2021-05-03T05:58:03,42.805,6.029,0.011,-0.028,0.007,103.0,103.0,101.0,13.3,1505.2,328.8,-0.7,1.8,2470.261,13.28,0.03,158.6
2021-05-03T06:04:03,42.805,6.029,0.068,-0.018,0.067,103.0,104.0,101.0,13.3,1505.2,326.4,-0.7,1.8,2470.292,13.28,0.07,104.8
2021-05-03T06:07:03,42.805,6.029,0.028,-0.011,0.037,104.0,104.0,101.0,13.4,1505.2,327.5,-0.8,1.8,2470.29,13.28,0.03,111.4
2021-05-03T06:10:03,42.805,6.029,0.035,-0.039,0.006,103.0,103.0,102.0,13.3,1505.2,329.2,-0.8,1.8,2470.241,13.28,0.052,138.1
2021-05-03T06:13:03,42.805,6.029,0.045,-0.027,0.051,102.0,104.0,101.0,13.4,1505.2,323.5,-0.8,1.8,2470.26,13.28,0.052,121.0
2021-05-03T06:16:03,42.805,6.029,0.041,-0.033,0.04,104.0,104.0,101.0,13.4,1505.2,326.9,-0.7,1.8,2470.242,13.28,0.052,128.8
2021-05-03T06:19:03,42.805,6.029,0.034,-0.012,0.057,103.0,105.0,101.0,13.3,1505.2,325.7,-0.7,1.8,2470.218,13.28,0.036,109.4
2021-05-03T06:22:03,42.805,6.029,0.03,-0.033,-0.022,103.0,104.0,102.0,13.3,1505.2,327.0,-0.7,1.8,2470.251,13.28,0.044,137.7
2021-05-03T06:25:03,42.805,6.029,0.035,-0.031,0.045,102.0,103.0,102.0,13.4,1505.2,329.3,-0.8,1.8,2470.224,13.28,0.046,131.5
2021-05-03T06:28:03,42.805,6.029,0.026,-0.027,0.002,103.0,104.0,101.0,13.4,1505.2,324.4,-0.8,1.8,2470.206,13.28,0.037,136.1
2021-05-03T06:31:03,42.805,6.029,0.044,-0.012,0.054,104.0,103.0,101.0,13.4,1505.2,327.5,-0.8,1.8,2470.245,13.28,0.045,105.3
2021-05-03T06:34:03,42.805,6.029,0.03,0.008,0.006,104.0,105.0,102.0,13.4,1505.2,325.0,-0.8,1.8,2470.265,13.28,0.031,75.1
2021-05-03T06:37:03,42.805,6.029,0.024,-0.017,-0.001,103.0,104.0,102.0,13.4,1505.2,325.7,-0.8,1.8,2470.24,13.28,0.029,125.3
2021-05-03T06:40:03,42.805,6.029,0.048,-0.016,-0.007,105.0,107.0,102.0,13.3,1505.2,327.2,-0.8,1.8,2470.257,13.28,0.05,108.4
2021-05-03T06:43:03,42.805,6.029,0.038,-0.009,0.02,102.0,104.0,102.0,13.4,1505.2,329.6,-0.8,1.8,2470.263,13.28,0.039,103.3
2021-05-03T06:46:03,42.805,6.029,0.043,0.006,0.027,102.0,106.0,101.0,13.4,1505.2,325.8,-0.8,1.8,2470.239,13.28,0.043,82.1
2021-05-03T06:49:03,42.805,6.029,0.062,-0.006,0.047,103.0,105.0,102.0,13.4,1505.2,327.3,-0.7,1.8,2470.202,13.28,0.062,95.5
2021-05-03T06:52:03,42.805,6.029,0.035,-0.036,0.011,103.0,104.0,102.0,13.4,1505.2,325.5,-0.8,1.8,2470.186,13.28,0.05,135.8
2021-05-03T06:55:03,42.805,6.029,0.063,-0.026,0.043,104.0,105.0,102.0,13.4,1505.2,329.0,-0.8,1.8,2470.247,13.28,0.068,112.4
2021-05-03T06:58:03,42.805,6.029,0.066,-0.025,0.034,103.0,104.0,101.0,13.4,1505.2,328.4,-0.8,1.8,2470.224,13.28,0.07,110.7
2021-05-03T07:04:03,42.805,6.029,0.058,-0.027,0.036,103.0,104.0,101.0,13.3,1505.2,324.5,-0.8,1.9,2470.277,13.28,0.063,115.0
2021-05-03T07:07:03,42.805,6.029,0.018,-0.008,0.037,103.0,105.0,101.0,13.4,1505.2,324.8,-0.7,1.8,2470.248,13.28,0.019,114.0
2021-05-03T07:10:03,42.805,6.029,0.051,-0.012,0.034,102.0,104.0,101.0,13.3,1505.2,325.6,-0.7,1.9,2470.271,13.28,0.052,103.2
2021-05-03T07:13:03,42.805,6.029,0.036,-0.014,0.019,102.0,103.0,102.0,13.4,1505.2,328.8,-0.8,1.8,2470.242,13.28,0.038,111.2
2021-05-03T07:16:03,42.805,6.029,0.041,-0.007,0.03,103.0,104.0,102.0,13.3,1505.2,323.6,-0.7,1.8,2470.265,13.28,0.041,99.7
2021-05-03T07:19:03,42.805,6.029,0.052,-0.009,0.019,102.0,105.0,102.0,13.3,1505.2,325.6,-0.7,1.8,2470.229,13.28,0.052,99.8
2021-05-03T07:22:03,42.805,6.029,0.046,-0.03,0.025,103.0,104.0,102.0,13.4,1505.2,327.1,-0.8,1.8,2470.273,13.28,0.054,123.1
2021-05-03T07:25:03,42.805,6.029,0.035,-0.026,0.023,104.0,104.0,102.0,13.4,1505.2,328.9,-0.7,1.8,2470.276,13.28,0.043,126.6
2021-05-03T07:28:03,42.805,6.029,0.023,-0.034,-0.016,103.0,105.0,102.0,13.4,1505.2,325.0,-0.7,1.8,2470.269,13.28,0.041,145.9
2021-05-03T07:31:03,42.805,6.029,0.046,-0.018,-0.013,102.0,105.0,102.0,13.4,1505.2,324.4,-0.7,1.8,2470.293,13.28,0.049,111.4
2021-05-03T07:34:03,42.805,6.029,0.039,-0.021,0.03,102.0,104.0,102.0,13.4,1505.2,328.0,-0.8,1.8,2470.235,13.28,0.044,118.3
2021-05-03T07:37:03,42.805,6.029,0.05,0.006,0.047,102.0,104.0,101.0,13.4,1505.2,327.6,-0.7,1.8,2470.308,13.28,0.05,83.2
2021-05-03T07:40:03,42.805,6.029,0.029,-0.035,-0.001,103.0,105.0,102.0,13.3,1505.2,327.2,-0.8,1.8,2470.272,13.28,0.045,140.4
2021-05-03T07:43:03,42.805,6.029,0.062,-0.038,0.028,104.0,104.0,101.0,13.3,1505.2,326.4,-0.7,1.8,2470.251,13.28,0.072,121.5
2021-05-03T07:46:03,42.805,6.029,0.006,-0.028,-0.022,103.0,104.0,102.0,13.3,1505.2,327.2,-0.8,1.9,2470.28,13.28,0.028,167.9
2021-05-03T07:49:03,42.805,6.029,0.032,-0.013,-0.005,103.0,104.0,101.0,13.4,1505.2,327.2,-0.7,1.9,2470.292,13.28,0.034,112.1
2021-05-03T07:52:03,42.805,6.029,0.021,-0.018,0.031,103.0,104.0,101.0,13.4,1505.2,325.2,-0.7,1.8,2470.307,13.28,0.027,130.6
2021-05-03T07:55:03,42.805,6.029,0.02,-0.032,-0.007,102.0,104.0,101.0,13.3,1505.2,328.0,-0.7,1.8,2470.301,13.28,0.037,148.0
2021-05-03T07:58:03,42.805,6.029,0.036,-0.01,0.059,103.0,105.0,101.0,13.4,1505.2,328.6,-0.7,1.8,2470.276,13.28,0.037,105.5
2021-05-03T08:04:03,42.805,6.029,0.048,-0.035,0.016,103.0,103.0,101.0,13.3,1505.2,327.4,-0.8,1.8,2470.325,13.28,0.059,126.1
2021-05-03T08:07:03,42.805,6.029,0.038,-0.023,0.011,101.0,104.0,103.0,13.4,1505.2,327.9,-0.7,1.8,2470.308,13.28,0.044,121.2
2021-05-03T08:10:03,42.805,6.029,0.043,-0.013,0.018,102.0,104.0,101.0,13.4,1505.2,327.7,-0.8,1.9,2470.285,13.28,0.044,106.8
2021-05-03T08:13:03,42.805,6.029,0.017,-0.009,0.007,104.0,105.0,101.0,13.4,1505.2,327.0,-0.8,1.9,2470.286,13.28,0.019,117.9
2021-05-03T08:16:03,42.805,6.029,0.038,-0.02,0.005,102.0,105.0,101.0,13.4,1505.2,327.8,-0.8,1.8,2470.287,13.28,0.042,117.8
2021-05-03T08:19:03,42.805,6.029,0.018,-0.025,0.03,103.0,105.0,101.0,13.4,1505.2,324.7,-0.7,1.8,2470.324,13.28,0.03,144.2
2021-05-03T08:22:03,42.805,6.029,0.04,-0.023,-0.006,103.0,104.0,102.0,13.4,1505.2,327.2,-0.8,1.9,2470.295,13.28,0.046,119.9
2021-05-03T08:25:03,42.805,6.029,0.052,-0.022,0.012,103.0,107.0,102.0,13.4,1505.2,325.5,-0.7,1.8,2470.314,13.28,0.056,112.9
2021-05-03T08:28:03,42.805,6.029,0.028,-0.014,0.03,103.0,104.0,101.0,13.4,1505.2,327.0,-0.7,1.8,2470.267,13.28,0.031,116.6
2021-05-03T08:31:03,42.805,6.029,0.036,-0.024,0.011,104.0,104.0,101.0,13.4,1505.2,324.4,-0.8,1.8,2470.266,13.28,0.043,123.7
2021-05-03T08:34:03,42.805,6.029,0.028,-0.028,-0.003,103.0,105.0,101.0,13.3,1505.2,328.4,-0.8,1.8,2470.301,13.28,0.039,135.0
2021-05-03T08:37:03,42.805,6.029,0.03,-0.015,-0.037,102.0,104.0,101.0,13.3,1505.2,328.6,-0.8,1.8,2470.305,13.28,0.033,116.6
2021-05-03T08:40:03,42.805,6.029,0.048,0.003,0.002,103.0,104.0,101.0,13.3,1505.2,324.6,-0.7,1.8,2470.336,13.28,0.048,86.4
2021-05-03T08:43:03,42.805,6.029,0.032,-0.04,-0.017,103.0,104.0,101.0,13.4,1505.2,326.5,-0.8,1.8,2470.299,13.28,0.051,141.3
2021-05-03T08:46:03,42.805,6.029,0.033,-0.013,0.03,103.0,104.0,103.0,13.4,1505.2,328.6,-0.7,1.8,2470.336,13.28,0.035,111.5
2021-05-03T08:49:03,42.805,6.029,0.045,-0.025,0.01,102.0,104.0,101.0,13.3,1505.2,324.8,-0.7,1.8,2470.282,13.28,0.051,119.1
2021-05-03T08:52:03,42.805,6.029,0.042,-0.013,0.014,102.0,104.0,102.0,13.4,1505.2,326.5,-0.7,1.8,2470.29,13.28,0.043,107.2
2021-05-03T08:55:03,42.805,6.029,0.031,-0.037,-0.021,102.0,103.0,102.0,13.3,1505.2,326.5,-0.7,1.8,2470.304,13.28,0.048,140.0
2021-05-03T08:58:03,42.805,6.029,0.038,-0.032,-0.008,102.0,104.0,102.0,13.4,1505.2,328.2,-0.7,1.8,2470.314,13.28,0.049,130.1
2021-05-03T09:04:03,42.805,6.029,0.04,-0.036,0.008,103.0,105.0,101.0,13.3,1505.2,327.4,-0.8,1.8,2470.385,13.28,0.053,132.0
2021-05-03T09:07:03,42.805,6.029,0.035,-0.02,0.004,102.0,105.0,101.0,13.4,1505.2,327.4,-0.8,1.8,2470.38,13.28,0.04,119.7
2021-05-03T09:10:03,42.805,6.029,0.02,-0.035,0.001,103.0,105.0,102.0,13.3,1505.2,328.6,-0.8,1.8,2470.356,13.28,0.04,150.3
2021-05-03T09:13:03,42.805,6.029,0.03,-0.013,0.003,103.0,104.0,102.0,13.4,1505.2,325.7,-0.8,1.8,2470.348,13.28,0.032,113.4
2021-05-03T09:16:03,42.805,6.029,0.032,0.01,-0.006,103.0,105.0,102.0,13.4,1505.2,326.0,-0.8,1.8,2470.339,13.28,0.033,72.6
2021-05-03T09:19:03,42.805,6.029,0.013,-0.007,0.007,105.0,104.0,101.0,13.4,1505.2,329.1,-0.8,1.8,2470.324,13.28,0.014,118.3
2021-05-03T09:22:03,42.805,6.029,0.024,-0.014,0.002,104.0,103.0,101.0,13.4,1505.2,329.0,-0.7,1.9,2470.372,13.28,0.027,120.3
2021-05-03T09:25:03,42.805,6.029,0.046,-0.008,0.013,103.0,103.0,101.0,13.4,1505.2,324.4,-0.7,1.8,2470.336,13.28,0.046,99.9
2021-05-03T09:28:03,42.805,6.029,0.036,-0.01,0.006,102.0,105.0,101.0,13.4,1505.2,325.1,-0.8,1.8,2470.35,13.28,0.037,105.5
2021-05-03T09:31:03,42.805,6.029,0.037,-0.032,0.025,102.0,104.0,101.0,13.4,1505.2,326.4,-0.8,1.8,2470.345,13.28,0.048,130.9
2021-05-03T09:34:03,42.805,6.029,0.009,-0.027,0.016,102.0,104.0,101.0,13.4,1505.2,329.0,-0.7,1.8,2470.385,13.28,0.028,161.6
2021-05-03T09:37:03,42.805,6.029,0.041,-0.021,0.0,103.0,106.0,101.0,13.4,1505.2,325.7,-0.8,1.8,2470.365,13.28,0.046,117.1
2021-05-03T09:40:03,42.805,6.029,0.056,-0.023,0.009,103.0,104.0,102.0,13.3,1505.2,326.9,-0.8,1.8,2470.363,13.28,0.06,112.3
2021-05-03T09:43:03,42.805,6.029,0.036,-0.029,0.008,104.0,104.0,101.0,13.4,1505.2,325.2,-0.8,1.8,2470.351,13.28,0.046,128.9
2021-05-03T09:46:03,42.805,6.029,0.063,-0.026,0.047,103.0,106.0,101.0,13.3,1505.2,327.8,-0.7,1.8,2470.356,13.28,0.068,112.4
2021-05-03T09:49:03,42.805,6.029,0.027,-0.018,0.028,104.0,104.0,102.0,13.4,1505.2,326.8,-0.7,1.8,2470.349,13.28,0.032,123.7
2021-05-03T09:52:03,42.805,6.029,0.024,0.002,0.039,103.0,105.0,102.0,13.4,1505.2,326.1,-0.8,1.8,2470.404,13.28,0.024,85.2
2021-05-03T09:55:03,42.805,6.029,0.01,-0.008,0.017,105.0,106.0,102.0,13.4,1505.2,327.7,-0.7,1.8,2470.37,13.28,0.012,128.7
2021-05-03T09:58:03,42.805,6.029,0.048,-0.008,0.025,103.0,106.0,102.0,13.4,1505.2,329.0,-0.8,1.8,2470.343,13.28,0.048,99.5